| time (UTC) | temp F | wind direction | speed MPH | gust MPH | rain 1hr in | rain 24hr in | rain mn in | humidity % | barometer mb |
| 20260509184039 | 74 | 355 | 4.0 | 7.0 | 0.00 | 0.00 | 0.00 | 29 | 1005.1 |
| 20260509183534 | 73 | 237 | 3.0 | 4.0 | 0.00 | 0.00 | 0.00 | 31 | 1005.3 |
| 20260509183031 | 72 | 22 | 2.0 | 2.0 | 0.00 | 0.00 | 0.00 | 31 | 1005.3 |
| 20260509182527 | 72 | 319 | 4.0 | 4.0 | 0.00 | 0.00 | 0.00 | 30 | 1005.2 |
| 20260509182024 | 73 | 145 | 2.0 | 3.0 | 0.00 | 0.00 | 0.00 | 30 | 1005.3 |
| 20260509181523 | 73 | 327 | 3.0 | 3.0 | 0.00 | 0.00 | 0.00 | 30 | 1005.3 |
| 20260509181020 | 73 | 188 | 4.0 | 6.0 | 0.00 | 0.00 | 0.00 | 29 | 1005.3 |
| 20260509180515 | 72 | 223 | 4.0 | 6.0 | 0.00 | 0.00 | 0.00 | 30 | 1005.5 |
| 20260509180014 | 72 | 126 | 4.0 | 6.0 | 0.00 | 0.00 | 0.00 | 30 | 1005.6 |
| 20260509175514 | 71 | 241 | 4.0 | 4.0 | 0.00 | 0.00 | 0.00 | 31 | 1005.5 |
| 20260509175011 | 72 | 269 | 5.0 | 7.0 | 0.00 | 0.00 | 0.00 | 30 | 1005.4 |
| 20260509174508 | 72 | 221 | 1.0 | 1.0 | 0.00 | 0.00 | 0.00 | 32 | 1005.6 |
| 20260509174002 | 72 | 250 | 4.0 | 6.0 | 0.00 | 0.00 | 0.00 | 31 | 1005.6 |
| 20260509173457 | 72 | 258 | 8.0 | 13.0 | 0.00 | 0.00 | 0.00 | 31 | 1005.6 |
| 20260509172953 | 72 | 357 | 6.0 | 9.0 | 0.00 | 0.00 | 0.00 | 33 | 1005.6 |
| 20260509172451 | 72 | 225 | 6.0 | 10.0 | 0.00 | 0.00 | 0.00 | 33 | 1005.5 |
| 20260509171946 | 71 | 121 | 3.0 | 4.0 | 0.00 | 0.00 | 0.00 | 34 | 1005.5 |
| 20260509171442 | 72 | 208 | 4.0 | 4.0 | 0.00 | 0.00 | 0.00 | 44 | 1005.6 |
| 20260509170939 | 72 | 294 | 2.0 | 4.0 | 0.00 | 0.00 | 0.00 | 46 | 1005.8 |
| 20260509170434 | 71 | 264 | 6.0 | 11.0 | 0.00 | 0.00 | 0.00 | 46 | 1005.5 |
| 20260509165930 | 71 | 189 | 1.0 | 1.0 | 0.00 | 0.00 | 0.00 | 48 | 1005.6 |
| 20260509165424 | 72 | 255 | 5.0 | 7.0 | 0.00 | 0.00 | 0.00 | 47 | 1006.0 |
| 20260509164920 | 69 | 169 | 2.0 | 2.0 | 0.00 | 0.00 | 0.00 | 49 | 1005.6 |
| 20260509164416 | 69 | 11 | 3.0 | 4.0 | 0.00 | 0.00 | 0.00 | 50 | 1005.8 |
| 20260509163912 | 69 | 268 | 4.0 | 6.0 | 0.00 | 0.00 | 0.00 | 47 | 1005.5 |
| 20260509163410 | 69 | 351 | 3.0 | 4.0 | 0.00 | 0.00 | 0.00 | 51 | 1005.8 |
| 20260509162909 | 69 | 208 | 4.0 | 4.0 | 0.00 | 0.00 | 0.00 | 50 | 1005.5 |
| 20260509162407 | 69 | 172 | 4.0 | 6.0 | 0.00 | 0.00 | 0.00 | 53 | 1005.9 |
| 20260509161903 | 69 | 277 | 7.0 | 10.0 | 0.00 | 0.00 | 0.00 | 52 | 1005.8 |
| 20260509161400 | 68 | 272 | 3.0 | 4.0 | 0.00 | 0.00 | 0.00 | 54 | 1005.6 |
| 20260509160855 | 68 | 11 | 1.0 | 1.0 | 0.00 | 0.00 | 0.00 | 53 | 1005.6 |
| 20260509160351 | 68 | 345 | 3.0 | 3.0 | 0.00 | 0.00 | 0.00 | 56 | 1005.6 |
| 20260509155846 | 68 | 222 | 3.0 | 3.0 | 0.00 | 0.00 | 0.00 | 58 | 1005.9 |
| 20260509155343 | 67 | 258 | 3.0 | 4.0 | 0.00 | 0.00 | 0.00 | 55 | 1005.8 |
| 20260509154839 | 67 | 209 | 2.0 | 2.0 | 0.00 | 0.00 | 0.00 | 59 | 1005.6 |
| 20260509154336 | 66 | 176 | 1.0 | 2.0 | 0.00 | 0.00 | 0.00 | 61 | 1005.6 |
| 20260509153833 | 65 | 160 | 2.0 | 2.0 | 0.00 | 0.00 | 0.00 | 63 | 1005.8 |
| 20260509153330 | 65 | 350 | 2.0 | 2.0 | 0.00 | 0.00 | 0.00 | 62 | 1005.6 |
| 20260509152827 | 66 | 190 | 4.0 | 7.0 | 0.00 | 0.00 | 0.00 | 63 | 1005.5 |
| 20260509152322 | 66 | 275 | 3.0 | 3.0 | 0.00 | 0.00 | 0.00 | 60 | 1005.8 |
| 20260509151821 | 66 | 200 | 4.0 | 6.0 | 0.00 | 0.00 | 0.00 | 61 | 1005.6 |
| 20260509151316 | 66 | 226 | 4.0 | 6.0 | 0.00 | 0.00 | 0.00 | 65 | 1005.9 |
| 20260509150815 | 65 | 210 | 3.0 | 3.0 | 0.00 | 0.00 | 0.00 | 65 | 1005.8 |
| 20260509150312 | 64 | 143 | 4.0 | 6.0 | 0.00 | 0.00 | 0.00 | 65 | 1005.6 |
| 20260509145809 | 64 | 175 | 2.0 | 4.0 | 0.00 | 0.00 | 0.00 | 66 | 1005.6 |
| 20260509145309 | 63 | 239 | 5.0 | 10.0 | 0.00 | 0.00 | 0.00 | 67 | 1005.8 |
| 20260509144806 | 63 | 182 | 5.0 | 7.0 | 0.00 | 0.00 | 0.00 | 68 | 1005.6 |
| 20260509144303 | 63 | 162 | 3.0 | 4.0 | 0.00 | 0.00 | 0.00 | 68 | 1005.6 |
| 20260509143800 | 63 | 208 | 1.0 | 4.0 | 0.00 | 0.00 | 0.00 | 69 | 1005.9 |
| 20260509143257 | 63 | 241 | 3.0 | 4.0 | 0.00 | 0.00 | 0.00 | 69 | 1005.8 |
| 20260509142753 | 63 | 202 | 5.0 | 8.0 | 0.00 | 0.00 | 0.00 | 69 | 1005.6 |
| 20260509142249 | 63 | 204 | 4.0 | 4.0 | 0.00 | 0.00 | 0.00 | 69 | 1005.4 |
| 20260509141745 | 62 | 194 | 2.0 | 3.0 | 0.00 | 0.00 | 0.00 | 70 | 1005.5 |
| 20260509141242 | 62 | 180 | 4.0 | 4.0 | 0.00 | 0.00 | 0.00 | 71 | 1005.4 |
| 20260509140739 | 62 | 145 | 4.0 | 6.0 | 0.00 | 0.00 | 0.00 | 71 | 1005.4 |
| 20260509140236 | 61 | 215 | 6.0 | 8.0 | 0.00 | 0.00 | 0.00 | 73 | 1005.3 |
| 20260509135733 | 61 | 274 | 5.0 | 7.0 | 0.00 | 0.00 | 0.00 | 73 | 1005.5 |
| 20260509135231 | 61 | 163 | 3.0 | 6.0 | 0.00 | 0.00 | 0.00 | 73 | 1005.2 |
| 20260509134728 | 60 | 183 | 3.0 | 4.0 | 0.00 | 0.00 | 0.00 | 76 | 1005.0 |
| 20260509134226 | 60 | 233 | 3.0 | 6.0 | 0.00 | 0.00 | 0.00 | 75 | 1005.3 |
| 20260509133723 | 59 | 169 | 6.0 | 10.0 | 0.00 | 0.00 | 0.00 | 76 | 1005.2 |
| 20260509133219 | 60 | 86 | 3.0 | 4.0 | 0.00 | 0.00 | 0.00 | 77 | 1005.3 |
| 20260509132718 | 59 | 36 | 5.0 | 6.0 | 0.00 | 0.00 | 0.00 | 78 | 1005.5 |
| 20260509132216 | 59 | 184 | 4.0 | 10.0 | 0.00 | 0.00 | 0.00 | 78 | 1005.6 |
| 20260509131712 | 59 | 171 | 2.0 | 3.0 | 0.00 | 0.00 | 0.00 | 78 | 1006.0 |
| 20260509131209 | 59 | 248 | 2.0 | 2.0 | 0.00 | 0.00 | 0.00 | 79 | 1005.8 |
| 20260509130705 | 58 | 208 | 5.0 | 7.0 | 0.00 | 0.00 | 0.00 | 79 | 1005.6 |
| 20260509130201 | 58 | 182 | 4.0 | 6.0 | 0.00 | 0.00 | 0.00 | 79 | 1005.6 |
| 20260509125658 | 58 | 232 | 3.0 | 3.0 | 0.00 | 0.00 | 0.00 | 80 | 1005.6 |
| 20260509125154 | 58 | 180 | 2.0 | 3.0 | 0.00 | 0.00 | 0.00 | 81 | 1005.4 |
| 20260509124651 | 57 | 164 | 1.0 | 1.0 | 0.00 | 0.00 | 0.00 | 82 | 1005.4 |
| 20260509124148 | 57 | 193 | 3.0 | 6.0 | 0.00 | 0.00 | 0.00 | 83 | 1005.5 |
| 20260509123646 | 57 | 209 | 3.0 | 4.0 | 0.00 | 0.00 | 0.00 | 83 | 1005.5 |
| 20260509123143 | 56 | 193 | 3.0 | 4.0 | 0.00 | 0.00 | 0.00 | 85 | 1005.5 |
| 20260509122638 | 56 | 168 | 4.0 | 6.0 | 0.00 | 0.00 | 0.00 | 85 | 1005.4 |
| 20260509122136 | 55 | 115 | 4.0 | 4.0 | 0.00 | 0.00 | 0.00 | 86 | 1005.4 |
| 20260509121632 | 55 | 190 | 3.0 | 4.0 | 0.00 | 0.00 | 0.00 | 87 | 1005.3 |
| 20260509121130 | 55 | 169 | 4.0 | 4.0 | 0.00 | 0.00 | 0.00 | 88 | 1005.3 |
| 20260509120628 | 54 | 209 | 4.0 | 8.0 | 0.00 | 0.00 | 0.00 | 89 | 1005.5 |
| 20260509120126 | 54 | 169 | 3.0 | 3.0 | 0.00 | 0.00 | 0.00 | 90 | 1005.4 |
| 20260509115623 | 54 | 103 | 3.0 | 3.0 | 0.00 | 0.00 | 0.00 | 90 | 1005.5 |
| 20260509115121 | 54 | 188 | 3.0 | 6.0 | 0.00 | 0.00 | 0.00 | 90 | 1005.4 |
| 20260509114618 | 54 | 149 | 3.0 | 4.0 | 0.00 | 0.00 | 0.00 | 90 | 1005.2 |
| 20260509114117 | 54 | 199 | 2.0 | 3.0 | 0.00 | 0.00 | 0.00 | 90 | 1005.3 |
| 20260509113615 | 54 | 233 | 3.0 | 4.0 | 0.00 | 0.00 | 0.00 | 90 | 1005.1 |
| 20260509113112 | 54 | 226 | 3.0 | 4.0 | 0.00 | 0.00 | 0.00 | 90 | 1005.3 |
| 20260509112608 | 53 | 174 | 3.0 | 3.0 | 0.00 | 0.00 | 0.00 | 90 | 1005.1 |
| 20260509112105 | 53 | 239 | 5.0 | 6.0 | 0.00 | 0.00 | 0.00 | 90 | 1005.0 |
| 20260509111603 | 54 | 193 | 1.0 | 2.0 | 0.00 | 0.00 | 0.00 | 90 | 1005.1 |
| 20260509111059 | 54 | 205 | 2.0 | 3.0 | 0.00 | 0.00 | 0.00 | 90 | 1005.0 |
| 20260509110557 | 54 | 230 | 1.0 | 1.0 | 0.00 | 0.00 | 0.00 | 89 | 1005.2 |
| 20260509110054 | 54 | 176 | 4.0 | 6.0 | 0.00 | 0.00 | 0.00 | 89 | 1004.7 |
| 20260509105552 | 54 | 194 | 2.0 | 3.0 | 0.00 | 0.00 | 0.00 | 89 | 1004.6 |
| 20260509105049 | 54 | 161 | 5.0 | 7.0 | 0.00 | 0.00 | 0.00 | 89 | 1004.8 |
| 20260509104546 | 54 | 180 | 2.0 | 3.0 | 0.00 | 0.00 | 0.00 | 89 | 1004.8 |
| 20260509104043 | 54 | 221 | 3.0 | 3.0 | 0.00 | 0.00 | 0.00 | 89 | 1004.9 |
| 20260509103541 | 54 | 228 | 4.0 | 6.0 | 0.00 | 0.00 | 0.00 | 89 | 1004.8 |
| 20260509103039 | 54 | 196 | 4.0 | 7.0 | 0.00 | 0.00 | 0.00 | 88 | 1004.6 |
| 20260509102536 | 54 | 166 | 7.0 | 9.0 | 0.00 | 0.00 | 0.00 | 88 | 1004.7 |
| 20260509102032 | 54 | 145 | 2.0 | 3.0 | 0.00 | 0.00 | 0.00 | 89 | 1004.6 |
| 20260509101529 | 54 | 142 | 2.0 | 2.0 | 0.00 | 0.00 | 0.00 | 89 | 1004.7 |
| 20260509101026 | 54 | 175 | 2.0 | 3.0 | 0.00 | 0.00 | 0.00 | 89 | 1004.8 |
| 20260509100523 | 54 | 135 | 2.0 | 2.0 | 0.00 | 0.00 | 0.00 | 89 | 1004.9 |
| 20260509100020 | 54 | 196 | 3.0 | 4.0 | 0.00 | 0.00 | 0.00 | 89 | 1004.9 |
| 20260509095517 | 54 | 155 | 1.0 | 2.0 | 0.00 | 0.00 | 0.00 | 89 | 1005.0 |
| 20260509095014 | 54 | 161 | 1.0 | 2.0 | 0.00 | 0.00 | 0.00 | 89 | 1005.2 |
| 20260509094510 | 54 | 158 | 2.0 | 3.0 | 0.00 | 0.00 | 0.00 | 89 | 1005.2 |
| 20260509094008 | 54 | 192 | 3.0 | 3.0 | 0.00 | 0.00 | 0.00 | 89 | 1005.2 |
| 20260509093506 | 53 | 183 | 2.0 | 3.0 | 0.00 | 0.00 | 0.00 | 90 | 1005.1 |
| 20260509093003 | 54 | 166 | 1.0 | 1.0 | 0.00 | 0.00 | 0.00 | 90 | 1005.4 |
| 20260509092500 | 53 | 212 | 1.0 | 2.0 | 0.00 | 0.00 | 0.00 | 90 | 1005.6 |
| 20260509091959 | 53 | 174 | 4.0 | 4.0 | 0.00 | 0.00 | 0.00 | 90 | 1005.4 |
| 20260509091456 | 53 | 172 | 1.0 | 1.0 | 0.00 | 0.00 | 0.00 | 90 | 1005.3 |
| 20260509090953 | 53 | 171 | 1.0 | 2.0 | 0.00 | 0.00 | 0.00 | 90 | 1005.2 |
| 20260509090450 | 53 | 220 | 2.0 | 3.0 | 0.00 | 0.00 | 0.00 | 90 | 1005.4 |
| 20260509085947 | 53 | 193 | 4.0 | 6.0 | 0.00 | 0.00 | 0.00 | 91 | 1005.4 |
| 20260509085444 | 53 | 176 | 3.0 | 4.0 | 0.00 | 0.00 | 0.00 | 91 | 1005.5 |
| 20260509084941 | 53 | 149 | 1.0 | 2.0 | 0.00 | 0.00 | 0.00 | 91 | 1005.6 |
| 20260509084437 | 53 | 222 | 2.0 | 3.0 | 0.00 | 0.00 | 0.00 | 90 | 1005.6 |
| 20260509083935 | 53 | 186 | 4.0 | 6.0 | 0.00 | 0.00 | 0.00 | 90 | 1005.6 |
| 20260509083432 | 53 | 170 | 3.0 | 3.0 | 0.00 | 0.00 | 0.00 | 90 | 1005.5 |
| 20260509082929 | 53 | 173 | 1.0 | 1.0 | 0.00 | 0.00 | 0.00 | 90 | 1005.4 |
| 20260509082426 | 53 | 235 | 2.0 | 2.0 | 0.00 | 0.00 | 0.00 | 90 | 1005.6 |
| 20260509081922 | 53 | 164 | 2.0 | 3.0 | 0.00 | 0.00 | 0.00 | 90 | 1005.5 |
| 20260509081420 | 53 | 170 | 1.0 | 2.0 | 0.00 | 0.00 | 0.00 | 89 | 1005.4 |
| 20260509080917 | 53 | 195 | 3.0 | 3.0 | 0.00 | 0.00 | 0.00 | 89 | 1005.3 |
| 20260509080415 | 53 | 155 | 4.0 | 4.0 | 0.00 | 0.00 | 0.00 | 89 | 1005.5 |
| 20260509075913 | 54 | 194 | 1.0 | 1.0 | 0.00 | 0.00 | 0.00 | 89 | 1005.3 |
| 20260509075410 | 54 | 184 | 4.0 | 4.0 | 0.00 | 0.00 | 0.00 | 88 | 1005.5 |
| 20260509074908 | 54 | 191 | 3.0 | 4.0 | 0.00 | 0.00 | 0.00 | 88 | 1005.8 |
| 20260509074405 | 54 | 157 | 3.0 | 3.0 | 0.00 | 0.00 | 0.00 | 88 | 1005.6 |
| 20260509073901 | 54 | 159 | 1.0 | 2.0 | 0.00 | 0.00 | 0.00 | 87 | 1005.9 |
| 20260509073358 | 54 | 147 | 0.0 | 0.0 | 0.00 | 0.00 | 0.00 | 87 | 1005.9 |
| 20260509072854 | 54 | 184 | 3.0 | 3.0 | 0.00 | 0.00 | 0.00 | 87 | 1005.8 |
| 20260509072351 | 54 | 170 | 1.0 | 1.0 | 0.00 | 0.00 | 0.00 | 86 | 1005.9 |
| 20260509071847 | 55 | 193 | 1.0 | 2.0 | 0.00 | 0.00 | 0.00 | 86 | 1006.1 |
| 20260509071344 | 55 | 172 | 2.0 | 2.0 | 0.00 | 0.00 | 0.00 | 86 | 1006.3 |
| 20260509070842 | 55 | 172 | 1.0 | 2.0 | 0.00 | 0.00 | 0.00 | 86 | 1006.2 |
| 20260509070338 | 55 | 151 | 2.0 | 3.0 | 0.00 | 0.00 | 0.00 | 85 | 1006.2 |
| 20260509065834 | 55 | 228 | 2.0 | 3.0 | 0.00 | 0.00 | 0.00 | 85 | 1006.4 |
| 20260509065331 | 55 | 235 | 2.0 | 2.0 | 0.00 | 0.00 | 0.00 | 85 | 1006.3 |
| 20260509064826 | 55 | 192 | 1.0 | 1.0 | 0.00 | 0.00 | 0.00 | 85 | 1006.4 |
| 20260509064325 | 55 | 177 | 2.0 | 2.0 | 0.00 | 0.00 | 0.00 | 85 | 1006.5 |
| 20260509063822 | 55 | 185 | 1.0 | 2.0 | 0.00 | 0.00 | 0.00 | 84 | 1006.5 |
| 20260509063318 | 55 | 204 | 4.0 | 4.0 | 0.00 | 0.00 | 0.00 | 84 | 1006.5 |
| 20260509062816 | 55 | 208 | 1.0 | 3.0 | 0.00 | 0.00 | 0.00 | 84 | 1006.6 |
| 20260509062312 | 55 | 189 | 2.0 | 2.0 | 0.00 | 0.00 | 0.00 | 84 | 1006.5 |
| 20260509061809 | 55 | 229 | 1.0 | 1.0 | 0.00 | 0.00 | 0.00 | 84 | 1006.6 |
| 20260509061308 | 56 | 143 | 4.0 | 7.0 | 0.00 | 0.00 | 0.00 | 84 | 1006.6 |
| 20260509060804 | 56 | 124 | 3.0 | 4.0 | 0.00 | 0.00 | 0.00 | 84 | 1006.6 |
| 20260509060301 | 56 | 159 | 2.0 | 3.0 | 0.00 | 0.00 | 0.00 | 83 | 1007.1 |
| 20260509055756 | 56 | 160 | 3.0 | 3.0 | 0.00 | 0.00 | 0.00 | 83 | 1007.0 |
| 20260509055252 | 56 | 160 | 4.0 | 6.0 | 0.00 | 0.00 | 0.00 | 83 | 1007.0 |
| 20260509054749 | 56 | 193 | 2.0 | 3.0 | 0.00 | 0.00 | 0.00 | 83 | 1006.8 |
| 20260509054246 | 56 | 263 | 3.0 | 6.0 | 0.00 | 0.00 | 0.00 | 83 | 1007.1 |
| 20260509053745 | 57 | 168 | 2.0 | 3.0 | 0.00 | 0.00 | 0.00 | 83 | 1006.8 |
| 20260509053241 | 57 | 179 | 0.0 | 1.0 | 0.00 | 0.00 | 0.00 | 82 | 1007.0 |
| 20260509052739 | 57 | 207 | 5.0 | 7.0 | 0.00 | 0.00 | 0.00 | 82 | 1007.0 |
| 20260509052237 | 57 | 233 | 3.0 | 4.0 | 0.00 | 0.00 | 0.00 | 82 | 1007.0 |
| 20260509051734 | 57 | 203 | 2.0 | 3.0 | 0.00 | 0.00 | 0.00 | 81 | 1006.9 |
| 20260509051232 | 57 | 202 | 4.0 | 6.0 | 0.00 | 0.00 | 0.00 | 81 | 1006.9 |
| 20260509050728 | 57 | 189 | 3.0 | 3.0 | 0.00 | 0.00 | 0.00 | 80 | 1007.1 |
| 20260509050225 | 57 | 177 | 2.0 | 2.0 | 0.00 | 0.00 | 0.00 | 80 | 1007.0 |
| 20260509045722 | 57 | 151 | 3.0 | 6.0 | 0.00 | 0.00 | 0.00 | 79 | 1006.9 |
| 20260509045219 | 57 | 162 | 3.0 | 4.0 | 0.00 | 0.00 | 0.00 | 79 | 1007.0 |
| 20260509044716 | 58 | 183 | 1.0 | 1.0 | 0.00 | 0.00 | 0.00 | 78 | 1007.0 |
| 20260509044214 | 58 | 162 | 3.0 | 4.0 | 0.00 | 0.00 | 0.00 | 77 | 1007.0 |
| 20260509043710 | 58 | 151 | 2.0 | 3.0 | 0.00 | 0.00 | 0.00 | 77 | 1007.1 |
| 20260509043206 | 58 | 207 | 4.0 | 4.0 | 0.00 | 0.00 | 0.00 | 76 | 1007.0 |
| 20260509042703 | 58 | 204 | 4.0 | 6.0 | 0.00 | 0.00 | 0.00 | 76 | 1007.1 |
| 20260509042158 | 58 | 203 | 2.0 | 3.0 | 0.00 | 0.00 | 0.00 | 75 | 1007.1 |
| 20260509041655 | 58 | 190 | 4.0 | 4.0 | 0.00 | 0.00 | 0.00 | 74 | 1007.0 |
| 20260509041153 | 58 | 201 | 4.0 | 6.0 | 0.00 | 0.00 | 0.00 | 74 | 1007.0 |
| 20260509040651 | 58 | 194 | 6.0 | 8.0 | 0.00 | 0.00 | 0.00 | 73 | 1007.0 |
| 20260509040148 | 58 | 159 | 3.0 | 3.0 | 0.00 | 0.00 | 0.00 | 73 | 1007.1 |
| 20260509035644 | 59 | 162 | 1.0 | 1.0 | 0.00 | 0.00 | 0.00 | 72 | 1007.2 |
| 20260509035141 | 58 | 184 | 2.0 | 3.0 | 0.00 | 0.00 | 0.00 | 73 | 1007.3 |
| 20260509034639 | 58 | 200 | 2.0 | 2.0 | 0.00 | 0.00 | 0.00 | 73 | 1007.2 |
| 20260509034136 | 58 | 184 | 2.0 | 3.0 | 0.00 | 0.00 | 0.00 | 73 | 1007.2 |
| 20260509033633 | 58 | 156 | 1.0 | 2.0 | 0.00 | 0.00 | 0.00 | 73 | 1007.3 |
| 20260509033130 | 58 | 161 | 3.0 | 6.0 | 0.00 | 0.00 | 0.00 | 72 | 1007.3 |
| 20260509032627 | 57 | 197 | 6.0 | 8.0 | 0.00 | 0.00 | 0.00 | 72 | 1007.2 |
| 20260509032124 | 57 | 178 | 3.0 | 3.0 | 0.00 | 0.00 | 0.00 | 70 | 1007.4 |
| 20260509031622 | 57 | 195 | 3.0 | 3.0 | 0.00 | 0.00 | 0.00 | 70 | 1007.3 |
| 20260509031119 | 56 | 179 | 3.0 | 3.0 | 0.00 | 0.00 | 0.00 | 70 | 1007.4 |
| 20260509030617 | 56 | 159 | 2.0 | 2.0 | 0.00 | 0.00 | 0.00 | 69 | 1007.4 |
| 20260509030114 | 56 | 158 | 0.0 | 1.0 | 0.00 | 0.00 | 0.00 | 69 | 1007.2 |
| 20260509025610 | 55 | 155 | 1.0 | 1.0 | 0.00 | 0.00 | 0.00 | 70 | 1007.5 |
| 20260509025106 | 55 | 164 | 1.0 | 1.0 | 0.00 | 0.00 | 0.00 | 70 | 1007.4 |
| 20260509024602 | 55 | 142 | 0.0 | 0.0 | 0.00 | 0.00 | 0.00 | 70 | 1007.5 |
| 20260509024058 | 55 | 143 | 1.0 | 1.0 | 0.00 | 0.00 | 0.00 | 70 | 1007.5 |
| 20260509023556 | 55 | 113 | 0.0 | 0.0 | 0.00 | 0.00 | 0.00 | 71 | 1007.4 |
| 20260509023052 | 55 | 140 | 0.0 | 0.0 | 0.00 | 0.00 | 0.00 | 70 | 1007.4 |
| 20260509022548 | 55 | 140 | 0.0 | 0.0 | 0.00 | 0.00 | 0.00 | 70 | 1007.6 |
| 20260509022047 | 55 | 131 | 0.0 | 0.0 | 0.00 | 0.00 | 0.00 | 70 | 1007.5 |
| 20260509021543 | 55 | 130 | 0.0 | 0.0 | 0.00 | 0.00 | 0.00 | 70 | 1007.4 |
| 20260509021040 | 55 | 131 | 0.0 | 0.0 | 0.00 | 0.00 | 0.00 | 69 | 1007.7 |
| 20260509020539 | 56 | 115 | 0.0 | 0.0 | 0.00 | 0.00 | 0.00 | 68 | 1007.5 |
| 20260509020035 | 56 | 116 | 0.0 | 0.0 | 0.00 | 0.00 | 0.00 | 68 | 1007.4 |
| 20260509015534 | 56 | 132 | 0.0 | 0.0 | 0.00 | 0.00 | 0.00 | 68 | 1007.4 |
| 20260509015031 | 57 | 125 | 0.0 | 0.0 | 0.00 | 0.00 | 0.00 | 67 | 1007.4 |
| 20260509014528 | 57 | 153 | 0.0 | 0.0 | 0.00 | 0.00 | 0.00 | 67 | 1007.5 |
| 20260509014024 | 57 | 111 | 0.0 | 0.0 | 0.00 | 0.00 | 0.00 | 67 | 1007.4 |
| 20260509013521 | 57 | 106 | 0.0 | 0.0 | 0.00 | 0.00 | 0.00 | 67 | 1007.5 |
| 20260509013016 | 57 | 138 | 0.0 | 0.0 | 0.00 | 0.00 | 0.00 | 66 | 1007.4 |
| 20260509012514 | 57 | 138 | 0.0 | 0.0 | 0.00 | 0.00 | 0.00 | 65 | 1007.5 |
| 20260509012010 | 58 | 91 | 0.0 | 0.0 | 0.00 | 0.00 | 0.00 | 64 | 1007.4 |
| 20260509011508 | 58 | 85 | 0.0 | 0.0 | 0.00 | 0.00 | 0.00 | 64 | 1007.2 |
| 20260509011005 | 58 | 142 | 0.0 | 0.0 | 0.00 | 0.00 | 0.00 | 64 | 1007.2 |
| 20260509010503 | 58 | 120 | 0.0 | 0.0 | 0.00 | 0.00 | 0.00 | 64 | 1007.2 |
| 20260509005959 | 58 | 108 | 0.0 | 0.0 | 0.00 | 0.00 | 0.00 | 63 | 1007.4 |
| 20260509005458 | 58 | 53 | 3.0 | 4.0 | 0.00 | 0.00 | 0.00 | 62 | 1007.4 |
| 20260509004957 | 59 | 120 | 0.0 | 0.0 | 0.00 | 0.00 | 0.00 | 63 | 1007.3 |
| 20260509004454 | 59 | 63 | 1.0 | 1.0 | 0.00 | 0.00 | 0.00 | 62 | 1007.5 |
| 20260509003952 | 59 | 79 | 4.0 | 6.0 | 0.00 | 0.00 | 0.00 | 61 | 1007.2 |
| 20260509003450 | 60 | 155 | 1.0 | 1.0 | 0.00 | 0.00 | 0.00 | 62 | 1007.5 |
| 20260509002946 | 60 | 86 | 1.0 | 1.0 | 0.00 | 0.00 | 0.00 | 61 | 1007.2 |
| 20260509002445 | 60 | 49 | 1.0 | 1.0 | 0.00 | 0.00 | 0.00 | 61 | 1007.3 |
| 20260509001941 | 60 | 117 | 1.0 | 3.0 | 0.00 | 0.00 | 0.00 | 61 | 1007.5 |
| 20260509001438 | 60 | 85 | 2.0 | 4.0 | 0.00 | 0.00 | 0.00 | 62 | 1007.5 |
| 20260509000934 | 60 | 124 | 1.0 | 2.0 | 0.00 | 0.00 | 0.00 | 62 | 1007.4 |
| 20260509000433 | 61 | 64 | 1.0 | 2.0 | 0.00 | 0.00 | 0.00 | 61 | 1007.4 |
| 20260508235928 | 61 | 84 | 3.0 | 3.0 | 0.00 | 0.00 | 0.00 | 61 | 1007.5 |
| 20260508235427 | 61 | 97 | 1.0 | 2.0 | 0.00 | 0.00 | 0.00 | 61 | 1007.6 |
| 20260508234923 | 62 | 44 | 0.0 | 1.0 | 0.00 | 0.00 | 0.00 | 61 | 1007.5 |
| 20260508234420 | 62 | 85 | 1.0 | 1.0 | 0.00 | 0.00 | 0.00 | 61 | 1007.6 |
| 20260508233918 | 62 | 77 | 1.0 | 1.0 | 0.00 | 0.00 | 0.00 | 61 | 1007.6 |
| 20260508233417 | 62 | 59 | 1.0 | 2.0 | 0.00 | 0.00 | 0.00 | 61 | 1007.7 |
| 20260508232913 | 62 | 85 | 1.0 | 1.0 | 0.00 | 0.00 | 0.00 | 62 | 1007.7 |
| 20260508232410 | 62 | 76 | 6.0 | 8.0 | 0.00 | 0.00 | 0.00 | 61 | 1007.7 |
| 20260508231908 | 62 | 167 | 4.0 | 6.0 | 0.00 | 0.00 | 0.00 | 61 | 1007.6 |
| 20260508231404 | 62 | 175 | 2.0 | 2.0 | 0.00 | 0.00 | 0.00 | 61 | 1007.6 |
| 20260508230901 | 62 | 178 | 1.0 | 1.0 | 0.00 | 0.00 | 0.00 | 61 | 1007.6 |
| 20260508230358 | 63 | 139 | 2.0 | 3.0 | 0.00 | 0.00 | 0.00 | 60 | 1007.7 |
| 20260508225855 | 63 | 116 | 2.0 | 3.0 | 0.00 | 0.00 | 0.00 | 61 | 1007.5 |
| 20260508225351 | 63 | 355 | 2.0 | 3.0 | 0.00 | 0.00 | 0.00 | 61 | 1007.6 |
| 20260508224850 | 62 | 71 | 0.0 | 1.0 | 0.00 | 0.00 | 0.00 | 62 | 1007.5 |
| 20260508224347 | 63 | 26 | 1.0 | 1.0 | 0.00 | 0.00 | 0.00 | 62 | 1007.8 |
| 20260508223844 | 63 | 59 | 6.0 | 8.0 | 0.00 | 0.00 | 0.00 | 61 | 1007.8 |
| 20260508223341 | 64 | 56 | 1.0 | 1.0 | 0.00 | 0.00 | 0.00 | 61 | 1007.8 |
| 20260508222839 | 64 | 107 | 4.0 | 7.0 | 0.00 | 0.00 | 0.00 | 60 | 1007.8 |
| 20260508222336 | 62 | 106 | 2.0 | 2.0 | 0.00 | 0.00 | 0.00 | 62 | 1007.8 |
| 20260508221833 | 63 | 339 | 2.0 | 2.0 | 0.00 | 0.00 | 0.00 | 61 | 1007.8 |
| 20260508221328 | 64 | 157 | 2.0 | 2.0 | 0.00 | 0.00 | 0.00 | 61 | 1008.0 |
| 20260508220825 | 64 | 45 | 4.0 | 7.0 | 0.00 | 0.00 | 0.00 | 61 | 1007.9 |
| 20260508220321 | 65 | 125 | 1.0 | 2.0 | 0.00 | 0.00 | 0.00 | 59 | 1007.8 |
| 20260508215818 | 64 | 91 | 2.0 | 2.0 | 0.00 | 0.00 | 0.00 | 60 | 1008.0 |
| 20260508215314 | 63 | 162 | 3.0 | 4.0 | 0.00 | 0.00 | 0.00 | 61 | 1008.0 |
| 20260508214812 | 64 | 48 | 1.0 | 1.0 | 0.00 | 0.00 | 0.00 | 61 | 1008.1 |
| 20260508214308 | 64 | 81 | 0.0 | 1.0 | 0.00 | 0.00 | 0.00 | 61 | 1008.1 |
| 20260508213805 | 64 | 49 | 2.0 | 3.0 | 0.00 | 0.00 | 0.00 | 60 | 1007.9 |
| 20260508213302 | 64 | 20 | 1.0 | 1.0 | 0.00 | 0.00 | 0.00 | 58 | 1008.0 |
| 20260508212758 | 64 | 93 | 1.0 | 1.0 | 0.00 | 0.00 | 0.00 | 59 | 1008.0 |
| 20260508212254 | 64 | 101 | 3.0 | 3.0 | 0.00 | 0.00 | 0.00 | 59 | 1007.9 |
| 20260508211750 | 63 | 47 | 1.0 | 1.0 | 0.00 | 0.00 | 0.00 | 60 | 1007.9 |
| 20260508211246 | 63 | 103 | 2.0 | 3.0 | 0.00 | 0.00 | 0.00 | 57 | 1008.1 |
| 20260508210744 | 63 | 83 | 3.0 | 4.0 | 0.00 | 0.00 | 0.00 | 56 | 1008.1 |
| 20260508210241 | 63 | 101 | 5.0 | 7.0 | 0.00 | 0.00 | 0.00 | 55 | 1008.0 |
| 20260508205738 | 63 | 85 | 5.0 | 8.0 | 0.00 | 0.00 | 0.00 | 55 | 1008.2 |
| 20260508205234 | 63 | 80 | 2.0 | 2.0 | 0.00 | 0.00 | 0.00 | 56 | 1008.0 |
| 20260508204730 | 63 | 90 | 5.0 | 7.0 | 0.00 | 0.00 | 0.00 | 55 | 1008.2 |
| 20260508204227 | 64 | 32 | 2.0 | 3.0 | 0.00 | 0.00 | 0.00 | 54 | 1008.2 |
| 20260508203723 | 63 | 108 | 1.0 | 2.0 | 0.00 | 0.00 | 0.00 | 55 | 1008.2 |
| 20260508203219 | 64 | 143 | 3.0 | 3.0 | 0.00 | 0.00 | 0.00 | 55 | 1008.4 |
| 20260508202715 | 64 | 64 | 3.0 | 7.0 | 0.00 | 0.00 | 0.00 | 55 | 1008.4 |
| 20260508202213 | 64 | 111 | 3.0 | 3.0 | 0.00 | 0.00 | 0.00 | 54 | 1008.5 |
| 20260508201709 | 64 | 97 | 3.0 | 4.0 | 0.00 | 0.00 | 0.00 | 54 | 1008.4 |
| 20260508201206 | 64 | 143 | 1.0 | 2.0 | 0.00 | 0.00 | 0.00 | 54 | 1008.6 |
| 20260508200703 | 64 | 51 | 2.0 | 4.0 | 0.00 | 0.00 | 0.00 | 54 | 1008.6 |
| 20260508200159 | 64 | 122 | 6.0 | 8.0 | 0.00 | 0.00 | 0.00 | 52 | 1008.7 |
| 20260508195656 | 65 | 93 | 1.0 | 1.0 | 0.00 | 0.00 | 0.00 | 53 | 1008.8 |
| 20260508195152 | 65 | 193 | 1.0 | 1.0 | 0.00 | 0.00 | 0.00 | 46 | 1009.0 |
| 20260508194649 | 66 | 63 | 0.0 | 1.0 | 0.00 | 0.00 | 0.00 | 46 | 1008.9 |
| 20260508194146 | 65 | 220 | 1.0 | 1.0 | 0.00 | 0.00 | 0.00 | 45 | 1008.9 |
| 20260508193643 | 66 | 35 | 1.0 | 1.0 | 0.00 | 0.00 | 0.00 | 46 | 1009.1 |
| 20260508193139 | 66 | 344 | 1.0 | 1.0 | 0.00 | 0.00 | 0.00 | 46 | 1009.1 |
| 20260508192636 | 65 | 94 | 1.0 | 1.0 | 0.00 | 0.00 | 0.00 | 48 | 1009.2 |
| 20260508192134 | 65 | 162 | 0.0 | 1.0 | 0.00 | 0.00 | 0.00 | 49 | 1009.1 |
| 20260508191630 | 66 | 242 | 0.0 | 1.0 | 0.00 | 0.00 | 0.00 | 47 | 1009.1 |
| 20260508191127 | 66 | 230 | 1.0 | 2.0 | 0.00 | 0.00 | 0.00 | 47 | 1009.3 |
| 20260508190625 | 66 | 165 | 4.0 | 4.0 | 0.00 | 0.00 | 0.00 | 47 | 1009.4 |
| 20260508190121 | 66 | 2 | 0.0 | 1.0 | 0.00 | 0.00 | 0.00 | 46 | 1009.5 |
| 20260508185618 | 68 | 140 | 4.0 | 7.0 | 0.00 | 0.00 | 0.00 | 43 | 1009.6 |
| 20260508185115 | 68 | 171 | 2.0 | 2.0 | 0.00 | 0.00 | 0.00 | 44 | 1009.5 |
| 20260508184612 | 67 | 245 | 2.0 | 3.0 | 0.00 | 0.00 | 0.00 | 42 | 1009.6 |